Weather in Tobachnoe

Russia / Republic of Crimea     44°54′10″N   33°40′34″E
temp.,
°C
wind,
m/s
gust,
m/s
humid.,
%
clouds,
%
prec.,
mm/h
press.,
hPa
HPBL,
m
26 february, fri
fri2600:00+4ssw469195 0.0 1032159
03:00+5ssw349598 0.1 103196
06:00+5s3596100 0.1 1030116
09:00+6ssw359397 0.2 1029207
12:00+9sw578198 0.0 1029392
15:00+10sw577450 0.0 1027458
18:00+8sw57840 0.0 1025318
21:00+7ssw59920 0.0 1024242
27 february, sat
sat2700:00+6ssw510930 0.0 1023296
03:00+6ssw510930 0.0 1022307
06:00+6ssw510931 0.0 1020261
09:00+7ssw610891 0.0 1020459
12:00+10sw68770 0.0 1019555
15:00+10sw67783 0.0 1018519
18:00+9sw348827 0.0 1017229
21:00+8nw258657 0.0 1019372
28 february, sun
sun2800:00+6n4788100 0.1 1019474
03:00+5n4775100 0.4 1019759
06:00+5nnw3673100 0.0 1019545
09:00+4nnw568199 0.1 1021551
12:00+5nnw567594 0.1 1021794
15:00+6nnw566693 0.3 1022996
18:00+5nnw4673100 0.2 1023864
21:00+3nnw4586100 0.4 1024485
1 march, mon
mon100:00+2n228999 0.1 1024157
03:00+3n118399 0.3 102557
06:00+2nnw0185100 0.2 102570
09:00+2nne2384100 0.3 1026320
12:00+5n336098 0.1 10271054
15:00+5n335999 0.1 1028981
18:00+4nne4562100 0.1 1028725
21:00+2ne367473 0.1 1031205
2 march, tue
tue200:00+2ne367667 0.1 1032361
03:00+1nne247674 0.1 1032137
06:00−1nne348336 0.0 103389
09:00+1ne237218 0.0 1033261
12:00+4nw335332 0.0 10341029
15:00+5w555447 0.0 10331008
18:00+4w566929 0.0 1031779
21:00+3w357958 0.0 1031174